Location: Acequia del Cap
(41.7000°N, 0.6167°E)
Time: 00:53:30
(UTC+00:00)

Cosmos 1603 - Pass Details

Date: 07 August 2020
Orbit: 831 x 860 km, 71.0° (Epoch: 22 September)

Event Time Altitude Azimuth Distance (km) Brightness Sun altitude
Rises 04:23:16 0° 328° (NNW) 3,441 6.8 -6.7°
Reaches altitude 10° 04:25:53 10° 320° (NW) 2,498 6.1 -6.3°
Maximum altitude 04:31:06 37° 255° (WSW) 1,300 4.2 -5.4°
Drops below altitude 10° 04:36:16 10° 190° (S) 2,468 5.8 -4.5°
Sets 04:38:51 0° 182° (S) 3,394 6.6 -4.1°
